timestamp,surface_pressure_avg,surface_temp_avg,battery_voltage,lat,long
2021-04-13 00:09:01+00:00,355.7012,1.7,12.49,47.84626,-54.09684
2021-04-13 00:19:01+00:00,352.69300000000015,1.89,12.49,47.84626,-54.09684
2021-04-13 00:29:01+00:00,351.8179,1.93,12.49,47.84626,-54.09684
2021-04-13 00:39:01+00:00,353.3729,1.99,12.49,47.84626,-54.09684
2021-04-13 00:49:01+00:00,350.5996,2.0,12.49,47.84626,-54.09684
2021-04-13 00:59:01+00:00,346.8762,1.47,12.49,47.84626,-54.09684
2021-04-13 01:09:01+00:00,346.608,1.4,12.49,47.84626,-54.09684
2021-04-13 01:19:01+00:00,344.6447,1.3,12.49,47.84626,-54.09684
2021-04-13 01:29:01+00:00,339.2362,1.3,12.49,47.84626,-54.09684
2021-04-13 01:39:01+00:00,331.2896,1.3,12.49,47.84626,-54.09684
2021-04-13 01:49:01+00:00,328.4297,1.3,12.49,47.84626,-54.09684
2021-04-13 01:59:01+00:00,329.1246,1.3,12.49,47.84626,-54.09684
2021-04-13 02:09:01+00:00,326.7946,1.39,12.49,47.84626,-54.09684
2021-04-13 02:19:01+00:00,316.8063,1.4,12.49,47.84626,-54.09684
2021-04-13 02:29:01+00:00,312.923,1.4,12.49,47.84626,-54.09684
2021-04-13 02:39:01+00:00,308.9031,1.49,12.49,47.84626,-54.09684
2021-04-13 02:49:01+00:00,298.758,1.4,12.49,47.84626,-54.09684
2021-04-13 02:59:01+00:00,289.5164,1.42,12.49,47.84626,-54.09684
2021-04-13 03:09:01+00:00,289.1897,1.5,12.49,47.84626,-54.09684
2021-04-13 03:19:01+00:00,283.9664,1.5,12.49,47.84626,-54.09684
2021-04-13 03:29:01+00:00,270.0864,2.15,12.49,47.84626,-54.09684
2021-04-13 03:39:01+00:00,259.7298,1.64,12.49,47.84626,-54.09684
2021-04-13 03:49:01+00:00,257.1781,1.6,12.49,47.84626,-54.09684
2021-04-13 03:59:01+00:00,247.0531,1.96,12.49,47.84626,-54.09684
2021-04-13 04:09:01+00:00,230.6681,2.18,12.49,47.84626,-54.09684
2021-04-13 04:19:01+00:00,222.5214,2.06,12.49,47.84626,-54.09684
2021-04-13 04:29:01+00:00,219.6198,2.2,12.49,47.84626,-54.09684
2021-04-13 04:39:01+00:00,207.5631,2.25,12.49,47.84626,-54.09684
2021-04-13 04:49:01+00:00,194.8665,2.28,12.49,47.84626,-54.09684
2021-04-13 04:59:01+00:00,192.4247,2.3,12.49,47.84626,-54.09684
2021-04-13 05:09:01+00:00,189.9031,2.4,12.49,47.84626,-54.09684
2021-04-13 05:19:01+00:00,178.8531,2.4,12.49,47.84626,-54.09684
2021-04-13 05:29:01+00:00,177.2165,2.3,12.49,47.84626,-54.09684
2021-04-13 05:39:01+00:00,176.2631,2.3,12.49,47.84626,-54.09684
2021-04-13 05:49:01+00:00,164.2665,2.4,12.49,47.84626,-54.09684
2021-04-13 05:59:01+00:00,163.8798,2.45,12.49,47.84626,-54.09684
2021-04-13 06:09:01+00:00,170.4232,2.41,12.49,47.84626,-54.09684
2021-04-13 06:19:01+00:00,167.2181,2.46,12.49,47.84626,-54.09684
2021-04-13 06:29:01+00:00,164.2599,2.49,12.49,47.84626,-54.09684
2021-04-13 06:39:01+00:00,168.5081,2.2,12.49,47.84626,-54.09684
2021-04-13 06:49:01+00:00,168.8148,2.39,12.49,47.84626,-54.09684
2021-04-13 06:59:01+00:00,166.5981,2.21,12.49,47.84626,-54.09684
2021-04-13 07:09:01+00:00,175.1631,2.3,12.49,47.84626,-54.09684
2021-04-13 07:19:01+00:00,182.7481,2.28,12.49,47.84626,-54.09684
2021-04-13 07:29:01+00:00,183.4632,2.3,12.49,47.84626,-54.09684
2021-04-13 07:39:01+00:00,187.0115,2.3,12.49,47.84626,-54.09684
2021-04-13 07:49:01+00:00,193.6748,2.3,12.49,47.84626,-54.09684
2021-04-13 07:59:01+00:00,199.6748,2.3,12.49,47.84626,-54.09684
2021-04-13 08:09:01+00:00,203.9531,2.29,12.49,47.84626,-54.09684
2021-04-13 08:19:01+00:00,206.7648,2.35,12.49,47.84626,-54.09684
2021-04-13 08:29:01+00:00,211.4197,2.4,12.49,47.84626,-54.09684
2021-04-13 08:39:01+00:00,216.0814,2.34,12.49,47.84626,-54.09684
2021-04-13 08:49:01+00:00,223.5264,2.0,12.49,47.84626,-54.09684
2021-04-13 08:59:01+00:00,233.0847,1.89,12.49,47.84626,-54.09684
2021-04-13 09:09:01+00:00,236.1414,1.85,12.49,47.84626,-54.09684
2021-04-13 09:19:01+00:00,241.5414,1.8,12.49,47.84626,-54.09684
2021-04-13 09:29:01+00:00,248.3897,1.7,12.49,47.84626,-54.09684
2021-04-13 09:39:01+00:00,253.3431,1.63,12.49,47.84626,-54.09684
2021-04-13 09:49:01+00:00,257.7498,1.64,12.49,47.84626,-54.09684
2021-04-13 09:59:01+00:00,266.3281,1.77,12.49,47.84626,-54.09684
2021-04-13 10:09:01+00:00,273.6681,2.17,12.49,47.84626,-54.09684
2021-04-13 10:19:01+00:00,273.178,2.09,12.49,47.84626,-54.09684
2021-04-13 10:29:01+00:00,279.6931,1.86,12.49,47.84626,-54.09684
2021-04-13 10:39:01+00:00,290.2363,1.58,12.49,47.84626,-54.09684
2021-04-13 10:49:01+00:00,294.753,1.5,12.49,47.84626,-54.09684
2021-04-13 10:59:01+00:00,293.1197,1.48,12.49,47.84626,-54.09684
2021-04-13 11:09:01+00:00,303.328,1.59,12.49,47.84626,-54.09684
2021-04-13 11:19:01+00:00,311.8297,1.4,12.81,47.84626,-54.09684
2021-04-13 11:29:01+00:00,319.253,1.49,12.81,47.84626,-54.09684
2021-04-13 11:39:01+00:00,319.6481,1.4,12.81,47.84626,-54.09684
2021-04-13 11:49:01+00:00,330.5281,1.52,12.81,47.84626,-54.09684
2021-04-13 11:59:01+00:00,333.468,1.5,12.81,47.84626,-54.09684
2021-04-13 12:09:01+00:00,333.7629,1.49,12.81,47.84626,-54.09684
2021-04-13 12:19:01+00:00,334.7013,1.55,13.05,47.84626,-54.09684
2021-04-13 12:29:01+00:00,339.0947,1.5,13.05,47.84626,-54.09684
2021-04-13 12:39:01+00:00,341.2729,1.5,13.05,47.84626,-54.09684
2021-04-13 12:49:01+00:00,342.9014,1.44,13.05,47.84626,-54.09684
2021-04-13 12:59:01+00:00,340.7396,1.49,13.05,47.84626,-54.09684
2021-04-13 13:09:01+00:00,340.26800000000014,1.5,13.05,47.84626,-54.09684
2021-04-13 13:19:01+00:00,337.543,1.5,13.44,47.84626,-54.09684
2021-04-13 13:29:01+00:00,335.4897,1.49,13.44,47.84626,-54.09684
2021-04-13 13:39:01+00:00,330.358,1.57,13.44,47.84626,-54.09684
2021-04-13 13:49:01+00:00,331.9897,1.6,13.44,47.84626,-54.09684
2021-04-13 13:59:01+00:00,326.8914,1.6,13.44,47.84626,-54.09684
2021-04-13 14:09:01+00:00,320.713,1.5,13.44,47.84626,-54.09684
2021-04-13 14:19:01+00:00,317.2114,1.57,14.0,47.84626,-54.09684
2021-04-13 14:29:01+00:00,315.8197,1.61,14.0,47.84626,-54.09684
2021-04-13 14:39:01+00:00,309.6664,1.7,14.0,47.84626,-54.09684
2021-04-13 14:49:01+00:00,302.3747,1.84,14.0,47.84626,-54.09684
2021-04-13 14:59:01+00:00,298.9164,2.06,14.0,47.84626,-54.09684
2021-04-13 15:09:01+00:00,292.5364,2.2,14.0,47.84626,-54.09684
2021-04-13 15:19:00+00:00,288.6664,1.9,14.56,47.84626,-54.09684
2021-04-13 15:29:00+00:00,283.5431,2.0,14.56,47.84626,-54.09684
2021-04-13 15:39:00+00:00,276.0947,2.1,14.56,47.84626,-54.09684
2021-04-13 15:49:00+00:00,268.2497,2.34,14.56,47.84626,-54.09684
2021-04-13 15:59:00+00:00,264.4681,2.42,14.56,47.84626,-54.09684
2021-04-13 16:09:00+00:00,256.313,2.61,14.56,47.84626,-54.09684
2021-04-13 16:19:00+00:00,249.9897,2.67,14.4,47.84626,-54.09684
2021-04-13 16:29:00+00:00,243.6048,2.29,14.4,47.84626,-54.09684
2021-04-13 16:39:00+00:00,235.3164,2.34,14.4,47.84626,-54.09684
2021-04-13 16:49:00+00:00,227.7813,2.5,14.4,47.84626,-54.09684
2021-04-13 16:59:00+00:00,225.5098,2.58,14.4,47.84626,-54.09684
2021-04-13 17:09:00+00:00,220.3397,2.93,14.4,47.84626,-54.09684
2021-04-13 17:19:00+00:00,208.8248,3.06,14.48,47.84626,-54.09684
2021-04-13 17:29:00+00:00,209.1514,3.0,14.48,47.84626,-54.09684
2021-04-13 17:39:00+00:00,207.3382,2.93,14.48,47.84626,-54.09684
2021-04-13 17:49:00+00:00,196.0581,3.26,14.48,47.84626,-54.09684
2021-04-13 17:59:00+00:00,193.6064,3.4,14.48,47.84626,-54.09684
2021-04-13 18:09:00+00:00,196.3281,3.11,14.48,47.84626,-54.09684
2021-04-13 18:19:00+00:00,192.7481,3.3,14.32,47.84626,-54.09684
2021-04-13 18:29:00+00:00,187.3415,3.14,14.32,47.84626,-54.09684
2021-04-13 18:39:00+00:00,192.9548,3.26,14.32,47.84626,-54.09684
2021-04-13 18:49:00+00:00,198.8914,3.2,14.32,47.84626,-54.09684
2021-04-13 18:59:00+00:00,193.1998,3.0,14.32,47.84626,-54.09684
2021-04-13 19:09:00+00:00,192.6214,3.1,14.32,47.84626,-54.09684
2021-04-13 19:19:00+00:00,203.4714,3.2,14.08,47.84626,-54.09684
2021-04-13 19:29:00+00:00,205.4414,3.06,14.08,47.84626,-54.09684
2021-04-13 19:39:00+00:00,203.5564,2.99,14.08,47.84626,-54.09684
2021-04-13 19:49:00+00:00,209.5948,2.85,14.08,47.84626,-54.09684
2021-04-13 19:59:00+00:00,220.1614,2.83,14.08,47.84626,-54.09684
2021-04-13 20:09:00+00:00,226.1881,3.12,14.08,47.84626,-54.09684
2021-04-13 20:19:01+00:00,229.4431,2.9,14.0,47.84626,-54.09684
2021-04-13 20:29:01+00:00,235.3031,2.8,14.0,47.84626,-54.09684
2021-04-13 20:39:01+00:00,241.7764,3.2,14.0,47.84626,-54.09684
2021-04-13 20:49:01+00:00,245.2681,3.1,14.0,47.84626,-54.09684
2021-04-13 20:59:01+00:00,248.6198,2.91,14.0,47.84626,-54.09684
2021-04-13 21:09:01+00:00,253.688,2.56,14.0,47.84626,-54.09684
2021-04-13 21:19:00+00:00,259.1614,2.4,13.92,47.84626,-54.09684
2021-04-13 21:29:00+00:00,262.3147,2.48,13.92,47.84626,-54.09684
2021-04-13 21:39:00+00:00,265.7964,2.91,13.92,47.84626,-54.09684
2021-04-13 21:49:00+00:00,273.4164,3.2,13.92,47.84626,-54.09684
2021-04-13 21:59:00+00:00,277.9114,2.61,13.92,47.84626,-54.09684
2021-04-13 22:09:00+00:00,281.3997,2.0,13.92,47.84626,-54.09684
2021-04-13 22:19:00+00:00,286.6848,1.86,13.53,47.84626,-54.09684
2021-04-13 22:29:00+00:00,293.7681,1.69,13.53,47.84626,-54.09684
2021-04-13 22:39:00+00:00,299.1697,1.9,13.53,47.84626,-54.09684
2021-04-13 22:49:00+00:00,303.7347,2.07,13.53,47.84626,-54.09684
2021-04-13 22:59:00+00:00,308.243,2.0,13.53,47.84626,-54.09684
2021-04-13 23:09:00+00:00,318.2363,1.99,13.53,47.84626,-54.09684
2021-04-13 23:19:00+00:00,323.048,1.44,13.13,47.84626,-54.09684
2021-04-13 23:29:00+00:00,326.928,1.6,13.13,47.84626,-54.09684
2021-04-13 23:39:00+00:00,332.4396,1.62,13.13,47.84626,-54.09684
2021-04-13 23:49:00+00:00,341.4263,1.89,13.13,47.84626,-54.09684
2021-04-13 23:59:00+00:00,343.6813,1.9,13.13,47.84626,-54.09684
